Погода в Нердашеве

Россия / Республика Марий Эл     56°42′47″N   48°15′53″E
темп.,
°C
ветер,
м/с
пор.,
м/с
влажн.,
%
обл.,
%
осадки,
мм/ч
давл.,
гПа
погр.,
м
3 марта, ср
ср300:00−5з349892 0.1 99989
03:00−3з499795 0.6 999407
06:00−5зсз61195100 0.9 999569
09:00−4ссз61195100 1.4 1001708
12:00−5сз6989100 0.3 1002724
15:00−5зсз71088100 0.4 1004787
18:00−6зсз51091100 0.1 1004693
21:00−6з41089100 0.2 1004692
4 марта, чт
чт400:00−8юз5995100 0.4 1001340
03:00−5зюз51195100 1.1 999513
06:00−4юз51196100 0.3 996538
09:00−2зюз71396100 1.1 994809
12:00−1юз71196100 1.6 990778
15:00−1з7127997 2.9 9901145
18:00−4з6148999 0.2 992609
21:00−4зсз51190100 0.5 996486
5 марта, пт
пт500:00−10зсз359485 0.0 99888
03:00−12сз339484 0.0 100035
06:00−16ссз349051 0.0 100234
09:00−14ссз369025 0.0 1003219
12:00−10сз368618 0.0 1004532
15:00−8сз478632 0.0 1006692
18:00−12з339490 0.0 100824
21:00−12зюз349688 0.1 101050
6 марта, сб
сб600:00−14юз349791 0.1 101175
03:00−14юз339888 0.1 101155
06:00−14юз339799 0.1 101176
09:00−12юз349597 0.2 1011180
12:00−8зюз2289100 0.3 1010398
15:00−7сз2391100 0.5 1010397
18:00−11ссз4895100 0.3 1010249
21:00−18сз349683 0.3 101154
7 марта, вс
вс700:00−20зсз23991 0.0 101020
03:00−20зюз2310042 0.0 101125
06:00−20юз34100100 0.1 101085
09:00−17ююз4797100 0.1 1008235
12:00−11ю61092100 0.0 1006500
15:00−9ю81393100 0.4 1002973
18:00−9ю81393100 1.1 999878
21:00−8ю71493100 1.6 996672